Volver al catálogo

STARLINK-32501

ActivoComunicacionesVLEO
NORAD 61890·PAYLOAD·🇺🇸 United States

Lanzado Nov 9, 2024 desde Vandenberg Space Force Base

Loading…

Próximos Pases (próximas 24 horas)

TLE

ActualizadoSource: CelesTrak SupGP

Época: Sep 14, 2026, 22:29 UTC

1 61890C 24204S   26257.93729167  .00013458  00000+0  39761-3 0  2578
2 61890  53.1589 324.0117 0001195  89.9764 105.6236 15.34383913    18

Sigue STARLINK-32501 en tiempo real con AllMySat

Download on the App Store